Flag for Italy Weather past 2 weeks in Messina, Italy

Now
61 °F

Passing clouds.


Feels Like: 61 °F
Forecast: 51 / 59 °F
Wind: 15 mph from North

Location: Reggio Calabria

Current Time: Mar 1, 2015 at 2:35:21 PM

Latest Report: Mar 1, 2015 at 1:50 PM


Visibility: N/A

Pressure: 30.09 "Hg

Humidity: 59%

Dew point: 46 °F

Location of MessinaLocation

Historic Weather in Messina — Graph

°F

Messina temperature yesterday

Maximum temperature yesterday: 61 °F (at 12:50 PM)
Minimum temperature yesterday: 48 °F (at 10:50 PM)
Average temperature yesterday: 54 °F

Past Weeks' High & Low Weather Summary

 TemperatureHumidityPressure
High63 °F (Feb 17, 11:50 AM)94% (Feb 15, 6:00 AM)30.48 "Hg (Feb 15, 6:00 AM)
Low43 °F (Feb 20, 6:00 AM)41% (Feb 25, 9:50 AM)29.39 "Hg (Feb 22, 1:52 PM)
Average54 °F71%29.92 "Hg
* Reported Feb 14 12:50 PM — Mar 1 12:50 PM, Messina, Weather by CustomWeather, © 2015

Note: Actual official high and low records may vary slightly from our data, if they occured in-between our weather recording intervals... More about our weather records

Advertising

Messina weather history for previous 24 hours

 ConditionsComfort  
Time TempWeatherWind HumidityBarometerVisibility
12:50 PM
Sun, Mar 1
61 °FPassing clouds.15 mph59%30.12 "HgN/A
11:50 AM61 °FPassing clouds.15 mph59%30.12 "HgN/A
10:50 AM59 °FPassing clouds.14 mph63%30.12 "HgN/A
9:50 AM55 °FPassing clouds.10 mph67%30.09 "HgN/A
8:50 AM55 °FPassing clouds.9 mph67%30.07 "HgN/A
7:50 AM52 °FPassing clouds.6 mph77%30.07 "HgN/A
6:50 AM46 °FPassing clouds.6 mph76%30.07 "HgN/A
5:50 AM46 °FPassing clouds.7 mph76%30.07 "HgN/A
11:50 PM
Sat, Feb 28
48 °FPassing clouds.3 mph76%30.07 "HgN/A
10:50 PM48 °FPassing clouds.5 mph76%30.07 "HgN/A
9:50 PM50 °FPassing clouds.1 mph71%30.07 "HgN/A
8:50 PM50 °FPassing clouds.2 mph76%30.07 "HgN/A
7:50 PM50 °FPassing clouds.5 mph76%30.04 "HgN/A
6:50 PM54 °FPassing clouds.5 mph72%30.01 "HgN/A
5:50 PM55 °FPassing clouds.8 mph67%30.01 "HgN/A
4:50 PM59 °FScattered clouds.10 mph59%29.98 "HgN/A
3:50 PM59 °FScattered clouds.10 mph63%29.98 "HgN/A
2:50 PM61 °FScattered clouds.13 mph59%29.98 "HgN/A
Weather by CustomWeather, © 2015

See weather overviewHow to use our weather pages